Weather History for KSRR - November, 2012

Change the Weather History Date:

Sunday, November 25, 2012

  Actual Average (WUND) Record (WUND)
Temperature  
Mean Temperature 48 °F -  
Max Temperature 60 °F - - (-1)
Min Temperature 37 °F - - (-1)
Degree Days  
Heating Degree Days 16    
Moisture  
Dew Point 18 °F    
Average Humidity 30    
Maximum Humidity 45    
Minimum Humidity 14    
Precipitation  
Precipitation 0.00 in - - ()
Sea Level Pressure  
Sea Level Pressure 30.10 in    
Wind  
Wind Speed 9 mph (NW)    
Max Wind Speed 24 mph    
Max Gust Speed 31 mph    
Visibility 10 miles    
Events      
Averages and records for this station are not official NWS values.
T = Trace of Precipitation, MM = Missing Value Source: NWS Daily Summary

Daily Weather History Graph

Daily Weather History Graph

Search for Another Location

Airport or City:

Trip Planner

Search our weather history database for the weather conditions in past years. The results will help you decide how hot, cold, wet, or windy it might be!

Date:

Astronomy

Nov. 25, 2012 Rise Set
Actual Time 6:43 AM MST 4:55 PM MST
Civil Twilight 6:16 AM MST 5:22 PM MST
Nautical Twilight 5:45 AM MST 5:52 PM MST
Astronomical Twilight 5:16 AM MST 6:22 PM MST
Moon 3:09 PM MST (11/25) 4:05 AM MST (11/25)
Length of Visible Light 11h 05m
Length of Day
10h 11m
Waxing Gibbous, 93% of the Moon is Illuminated
Nov 25
Waxing Gibbous
Nov 28
Full
Dec 6
Last Quarter
Dec 13
New
Dec 19
First Quarter

Hourly Weather History & Observations

Time (MST) Temp. Windchill Dew Point Humidity Pressure Visibility Wind Dir Wind Speed Gust Speed Precip Events Conditions
12:15 AM 39.2 °F - 17.6 °F 42% 30.15 in 10.0 mi Calm Calm - N/A   Clear
12:35 AM 37.4 °F 33.8 °F 17.6 °F 45% 30.15 in 10.0 mi NNW 4.6 mph - N/A   Clear
12:55 AM 39.2 °F 35.0 °F 17.6 °F 42% 30.14 in 10.0 mi NNW 5.8 mph - N/A   Clear
1:35 AM 39.2 °F 33.6 °F 17.6 °F 42% 30.14 in 10.0 mi WNW 8.1 mph - N/A   Clear
1:55 AM 39.2 °F 35.9 °F 17.6 °F 42% 30.13 in 10.0 mi North 4.6 mph - N/A   Clear
2:15 AM 37.4 °F - 17.6 °F 45% 30.13 in 10.0 mi Calm Calm - N/A   Clear
2:35 AM 39.2 °F - 17.6 °F 42% 30.13 in 10.0 mi Calm Calm - N/A   Clear
2:55 AM 37.4 °F 34.9 °F 17.6 °F 45% 30.12 in 10.0 mi NW 3.5 mph - N/A   Clear
3:15 AM 39.2 °F 37.0 °F 17.6 °F 42% 30.12 in 10.0 mi North 3.5 mph - N/A   Clear
3:35 AM 39.2 °F 35.9 °F 17.6 °F 42% 30.12 in 10.0 mi North 4.6 mph - N/A   Clear
3:55 AM 41.0 °F 37.1 °F 15.8 °F 36% 30.11 in 10.0 mi NNW 5.8 mph - N/A   Clear
4:15 AM 44.6 °F 40.7 °F 15.8 °F 31% 30.11 in 10.0 mi NNW 6.9 mph - N/A   Clear
4:35 AM 44.6 °F 39.2 °F 15.8 °F 31% 30.12 in 10.0 mi NNW 10.4 mph - N/A   Clear
4:55 AM 46.4 °F 42.4 °F 15.8 °F 29% 30.12 in 10.0 mi NW 8.1 mph - N/A   Clear
5:15 AM 44.6 °F 40.2 °F 15.8 °F 31% 30.12 in 10.0 mi NNW 8.1 mph - N/A   Clear
5:35 AM 44.6 °F 39.2 °F 15.8 °F 31% 30.12 in 10.0 mi North 10.4 mph - N/A   Clear
5:55 AM 41.0 °F 34.7 °F 15.8 °F 36% 30.12 in 10.0 mi North 10.4 mph - N/A   Clear
6:15 AM 42.8 °F 36.6 °F 17.6 °F 36% 30.12 in 10.0 mi North 11.5 mph - N/A   Clear
6:35 AM 42.8 °F 37.5 °F 17.6 °F 36% 30.13 in 10.0 mi North 9.2 mph - N/A   Clear
6:55 AM 42.8 °F 36.2 °F 17.6 °F 36% 30.13 in 10.0 mi North 12.7 mph - N/A   Clear
7:15 AM 42.8 °F 36.6 °F 17.6 °F 36% 30.14 in 10.0 mi North 11.5 mph - N/A   Clear
7:35 AM 44.6 °F 39.2 °F 17.6 °F 34% 30.14 in 10.0 mi North 10.4 mph - N/A   Clear
7:55 AM 46.4 °F 41.5 °F 17.6 °F 32% 30.14 in 10.0 mi North 10.4 mph - N/A   Clear
8:15 AM 48.2 °F - 17.6 °F 30% 30.14 in 10.0 mi NNW 12.7 mph - N/A   Clear
8:35 AM 50.0 °F - 17.6 °F 28% 30.15 in 10.0 mi NNW 15.0 mph 18.4 mph N/A   Clear
8:55 AM 50.0 °F - 17.6 °F 28% 30.15 in 10.0 mi North 12.7 mph - N/A   Clear
9:15 AM 53.6 °F - 17.6 °F 24% 30.15 in 10.0 mi NNW 13.8 mph 23.0 mph N/A   Clear
9:35 AM 53.6 °F - 15.8 °F 22% 30.15 in 10.0 mi NNW 11.5 mph 23.0 mph N/A   Clear
9:55 AM 55.4 °F - 15.8 °F 21% 30.15 in 10.0 mi NW 10.4 mph 23.0 mph N/A   Clear
10:15 AM 55.4 °F - 15.8 °F 21% 30.14 in 10.0 mi NW 17.3 mph 25.3 mph N/A   Clear
10:35 AM 57.2 °F - 12.2 °F 17% 30.13 in 10.0 mi NW 13.8 mph 25.3 mph N/A   Clear
10:55 AM 59.0 °F - 12.2 °F 16% 30.13 in 10.0 mi WNW 17.3 mph 25.3 mph N/A   Clear
11:15 AM 57.2 °F - 12.2 °F 17% 30.12 in 10.0 mi WNW 19.6 mph 31.1 mph N/A   Clear
11:35 AM 59.0 °F - 12.2 °F 16% 30.11 in 10.0 mi NW 19.6 mph 28.8 mph N/A   Clear
11:55 AM 59.0 °F - 10.4 °F 15% 30.10 in 10.0 mi NW 24.2 mph 28.8 mph N/A   Clear
12:15 PM 59.0 °F - 10.4 °F 15% 30.08 in 10.0 mi NW 17.3 mph 25.3 mph N/A   Clear
12:35 PM 60.8 °F - 10.4 °F 14% 30.07 in 10.0 mi WNW 18.4 mph 27.6 mph N/A   Clear
12:55 PM 59.0 °F - 10.4 °F 15% 30.06 in 10.0 mi WNW 19.6 mph 28.8 mph N/A   Clear
1:15 PM 59.0 °F - 12.2 °F 16% 30.07 in 10.0 mi NW 16.1 mph 28.8 mph N/A   Clear
1:35 PM 59.0 °F - 12.2 °F 16% 30.06 in 10.0 mi WNW 16.1 mph 29.9 mph N/A   Clear
1:55 PM 59.0 °F - 14.0 °F 17% 30.06 in 10.0 mi West 15.0 mph 21.9 mph N/A   Clear
2:15 PM 59.0 °F - 14.0 °F 17% 30.06 in 10.0 mi West 16.1 mph 26.5 mph N/A   Clear
2:35 PM 59.0 °F - 14.0 °F 17% 30.05 in 10.0 mi NW 16.1 mph 26.5 mph N/A   Clear
2:55 PM 59.0 °F - 15.8 °F 19% 30.05 in 10.0 mi WNW 20.7 mph 26.5 mph N/A   Clear
3:15 PM 59.0 °F - 17.6 °F 20% 30.05 in 10.0 mi WNW 18.4 mph 26.5 mph N/A   Clear
3:35 PM 57.2 °F - 17.6 °F 21% 30.05 in 10.0 mi WNW 13.8 mph 23.0 mph N/A   Clear
3:55 PM 57.2 °F - 17.6 °F 21% 30.05 in 10.0 mi West 15.0 mph 21.9 mph N/A   Clear
4:15 PM 57.2 °F - 19.4 °F 23% 30.05 in 10.0 mi West 10.4 mph - N/A   Clear
4:35 PM 55.4 °F - 19.4 °F 25% 30.05 in 10.0 mi West 16.1 mph 21.9 mph N/A   Clear
4:55 PM 53.6 °F - 19.4 °F 26% 30.05 in 10.0 mi West 10.4 mph - N/A   Clear
5:15 PM 51.8 °F - 19.4 °F 28% 30.04 in 10.0 mi WSW 6.9 mph - N/A   Clear
5:35 PM 48.2 °F - 19.4 °F 32% 30.05 in 10.0 mi SSW 6.9 mph - N/A   Clear
5:55 PM 48.2 °F - 23.0 °F 37% 30.04 in 10.0 mi SSW 12.7 mph - N/A   Clear
6:15 PM 48.2 °F - 23.0 °F 37% 30.05 in 10.0 mi SW 13.8 mph - N/A   Clear
6:35 PM 50.0 °F - 23.0 °F 35% 30.05 in 10.0 mi SW 16.1 mph - N/A   Clear
6:55 PM 50.0 °F - 23.0 °F 35% 30.05 in 10.0 mi SW 17.3 mph 21.9 mph N/A   Clear
7:15 PM 50.0 °F - 23.0 °F 35% 30.05 in 10.0 mi WSW 18.4 mph 23.0 mph N/A   Clear
7:35 PM 46.4 °F 43.5 °F 23.0 °F 40% 30.06 in 10.0 mi North 5.8 mph - N/A   Clear
7:55 PM 46.4 °F 42.4 °F 23.0 °F 40% 30.06 in 10.0 mi WNW 8.1 mph - N/A   Clear
8:15 PM 46.4 °F - 23.0 °F 40% 30.06 in 10.0 mi Calm Calm - N/A   Clear
8:35 PM 48.2 °F - 23.0 °F 37% 30.07 in 10.0 mi Calm Calm - N/A   Clear
8:55 PM 44.6 °F 43.1 °F 23.0 °F 43% 30.07 in 10.0 mi NE 3.5 mph - N/A   Clear
9:15 PM 46.4 °F - 23.0 °F 40% 30.07 in 10.0 mi Calm Calm - N/A   Clear
9:35 PM 48.2 °F - 23.0 °F 37% 30.07 in 10.0 mi NNW 4.6 mph - N/A   Clear
9:55 PM 46.4 °F 42.4 °F 23.0 °F 40% 30.07 in 10.0 mi WSW 8.1 mph - N/A   Clear
10:15 PM 46.4 °F 41.5 °F 21.2 °F 37% 30.08 in 10.0 mi WSW 10.4 mph - N/A   Clear
10:35 PM 48.2 °F - 19.4 °F 32% 30.08 in 10.0 mi WSW 10.4 mph - N/A   Clear
10:55 PM 48.2 °F - 17.6 °F 30% 30.08 in 10.0 mi WSW 12.7 mph - N/A   Clear
11:15 PM 44.6 °F 40.2 °F 17.6 °F 34% 30.08 in 10.0 mi West 8.1 mph - N/A   Clear
11:35 PM 48.2 °F - 19.4 °F 32% 30.09 in 10.0 mi North 4.6 mph - N/A   Clear
11:55 PM 46.4 °F - 19.4 °F 34% 30.09 in 10.0 mi Calm Calm - N/A   Clear